Overview Statistics Trail Chart Weather Telemetry Raw packets
 

This is the latest recevied weather packets stored in our database for station/object HOWARD. If no packets are shown the sender has not sent any weather packets the latest 10 day(s).

<< 1 2 3 4 >>
Time Temp. Humidity Pressure Rain* Wind** Luminosity Snow
1788628489 5° C 75% 1014.1 hPa 0 mm - - -
1788627964 5° C 75% 1014.2 hPa 0 mm - - -
1788627888 5° C 75% 1014.2 hPa 0 mm - - -
1788627288 5° C 73% 1014 hPa 0 mm - - -
1788626688 5.56° C 67% 1014 hPa 0 mm - - -
1788626088 5.56° C 61% 1013.9 hPa 0 mm - - -
1788625488 5.56° C 62% 1014 hPa 0 mm - - -
1788624888 5° C 62% 1014 hPa 0 mm - - -
1788624331 5° C 61% 1014 hPa 0 mm - - -
1788624288 5° C 61% 1014 hPa 0 mm - - -
1788623689 5° C 62% 1013.3 hPa 0 mm - - -
1788623088 5.56° C 57% 1013.4 hPa 0 mm - - -
1788622488 5.56° C 61% 1013.4 hPa 0 mm - - -
1788621889 5° C 66% 1013.5 hPa 0 mm - - -
1788621288 5.56° C 58% 1013.5 hPa 0 mm - - -
1788620711 5.56° C - 1013.6 hPa 0 mm - - -
1788620088 5.56° C 54% 1013.6 hPa 0 mm - - -
1788619488 5.56° C 55% 1013.6 hPa 0 mm - - -
1788618937 5° C 56% 1013.4 hPa 0 mm - - -
1788618888 5° C 56% 1013.4 hPa 0 mm - - -
1788618288 5° C 56% 1013.4 hPa 0 mm - - -
1788617688 4.44° C 57% 1013.2 hPa 0 mm - - -
1788617088 4.44° C 58% 1013.3 hPa 0 mm - - -
1788616488 3.89° C 60% 1013.3 hPa 0 mm - - -
1788615888 3.89° C 60% 1012.6 hPa 0 mm - - -

* Rain latest hour (hover to see other rain measurements)
** Current wind speed in m/s (hover to see current wind gust speed)